Location: Boda
(47.1872°N, 9.5454°E)
Time: 08:38:23
(UTC+00:00)

Cosmos 1536 Rocket - Pass Details

Date: 14 May 2021
Orbit: 605 x 632 km, 82.5° (Epoch: 16 June)

Event Time Altitude Azimuth Distance (km) Brightness Sun altitude
Exits shadow 01:51:32 21° 181° (S) 1,386 4.9 -15.7°
Maximum altitude 01:54:25 79° 98° (E) 642 3.6 -15.4°
Drops below altitude 10° 01:58:53 10° 12° (NNE) 2,014 7.2 -14.9°
Sets 02:01:08 0° 11° (N) 2,929 8.2 -14.7°
